Paducah, KY

7:18 AM CDT on September 26, 2017 (GMT -0500)
Barkley Regional

Weather History for KPAH - October, 2010

Change the Weather History Date:

Thursday, October 21, 2010

  Actual Average Record
Temperature  
Mean Temperature 59 °F 57 °F  
Max Temperature 75 °F 69 °F 88 °F (1953)
Min Temperature 42 °F 45 °F 26 °F (1952)
Degree Days  
Heating Degree Days 6 8  
Month to date heating degree days 107 129  
Since 1 July heating degree days 121 168  
Cooling Degree Days 0 1  
Month to date cooling degree days 19 32  
Year to date cooling degree days 1999 1532  
Growing Degree Days 10 (Base 50)    
Moisture  
Dew Point 33 °F    
Average Humidity 42    
Maximum Humidity 71    
Minimum Humidity 13    
Precipitation  
Precipitation 0.00 in 0.13 in 0.69 in (1983)
Month to date precipitation 0.10 2.74  
Year to date precipitation 28.84 38.97  
Snow  
Snow 0.00 in 0.00 in 0.00 in (2002)
Month to date snowfall 0.0 0.0  
Since 1 July snowfall 0.0 0.0  
Since 1 September snowfall 0.0 0.0  
Snow Depth 0.00 in    
Sea Level Pressure  
Sea Level Pressure 29.99 in    
Wind  
Wind Speed 6 mph (WNW)    
Max Wind Speed 16 mph    
Max Gust Speed 23 mph    
Visibility 9 miles    
Events      
T = Trace of Precipitation, MM = Missing Value Source: NWS Daily Summary

Daily Weather History Graph

Daily Weather History Graph

Search for Another Location

Airport or City:

Trip Planner

Search our weather history database for the weather conditions in past years. The results will help you decide how hot, cold, wet, or windy it might be!

Date:

Astronomy

Oct. 21, 2010 Rise Set
Actual Time 7:08 AM CDT 6:10 PM CDT
Civil Twilight 6:42 AM CDT 6:36 PM CDT
Nautical Twilight 6:11 AM CDT 7:07 PM CDT
Astronomical Twilight 5:41 AM CDT 7:37 PM CDT
Moon 5:10 PM CDT (10/21) 5:48 AM CDT (10/21)
Length of Visible Light 11h 54m
Length of Day
11h 01m
Waxing Gibbous, 98% of the Moon is Illuminated
Oct 21
Waxing Gibbous
Oct 22
Full
Oct 30
Last Quarter
Nov 5
New
Nov 13
First Quarter

Hourly Weather History & Observations

Time (CDT) Temp. Dew Point Humidity Pressure Visibility Wind Dir Wind Speed Gust Speed Precip Events Conditions
12:53 AM 55.9 °F 37.0 °F 49% 29.92 in 9.0 mi WSW 8.1 mph - N/A   Clear
1:53 AM 53.1 °F 37.9 °F 57% 29.91 in 10.0 mi WSW 6.9 mph - N/A   Clear
2:53 AM 53.1 °F 37.9 °F 57% 29.91 in 10.0 mi WSW 6.9 mph - N/A   Clear
3:53 AM 51.1 °F 39.0 °F 63% 29.91 in 10.0 mi WSW 6.9 mph - N/A   Clear
4:53 AM 48.9 °F 39.0 °F 69% 29.92 in 10.0 mi WSW 8.1 mph - N/A   Clear
5:53 AM 48.0 °F 39.9 °F 74% 29.94 in 9.0 mi West 4.6 mph - N/A   Clear
6:53 AM 48.9 °F 39.9 °F 71% 29.96 in 10.0 mi WSW 8.1 mph - N/A   Clear
7:53 AM 51.1 °F 41.0 °F 68% 29.98 in 10.0 mi West 4.6 mph - N/A   Clear
8:53 AM 57.9 °F 41.0 °F 53% 30.01 in 10.0 mi WNW 5.8 mph - N/A   Clear
9:53 AM 64.9 °F 39.9 °F 40% 30.02 in 10.0 mi North 8.1 mph - N/A   Clear
10:53 AM 66.9 °F 36.0 °F 32% 30.02 in 10.0 mi WNW 6.9 mph - N/A   Clear
11:53 AM 69.1 °F 32.0 °F 25% 30.03 in 10.0 mi WNW 12.7 mph 17.3 mph N/A   Clear
12:53 PM 71.1 °F 32.0 °F 24% 30.01 in 10.0 mi WNW 9.2 mph - N/A   Clear
1:53 PM 73.0 °F 19.9 °F 14% 30.00 in 10.0 mi NW 15.0 mph 21.9 mph N/A   Clear
2:53 PM 73.9 °F 24.1 °F 16% 29.99 in 10.0 mi NNW 10.4 mph - N/A   Clear
3:53 PM 73.0 °F 21.9 °F 15% 29.99 in 10.0 mi NW 9.2 mph - N/A   Clear
4:53 PM 72.0 °F 21.9 °F 15% 29.99 in 10.0 mi WNW 6.9 mph - N/A   Clear
5:53 PM 68.0 °F 24.1 °F 19% 29.99 in 10.0 mi NW 3.5 mph - N/A   Clear
6:53 PM 62.1 °F 26.1 °F 25% 30.01 in 10.0 mi NNW 3.5 mph - N/A   Clear
7:53 PM 52.0 °F 30.0 °F 43% 30.03 in 8.0 mi Calm Calm - N/A   Clear
8:53 PM 48.0 °F 35.1 °F 61% 30.04 in 8.0 mi Calm Calm - N/A   Clear
9:40 PM 46.4 °F 33.8 °F 62% 30.05 in 1.8 mi Calm Calm - N/A   Haze
9:53 PM 46.9 °F 34.0 °F 61% 30.06 in 6.0 mi Calm Calm - N/A   Haze
10:53 PM 46.0 °F 33.1 °F 61% 30.07 in 6.0 mi Calm Calm - N/A   Haze
11:53 PM 43.0 °F 33.1 °F 68% 30.07 in 10.0 mi Calm Calm - N/A   Clear